Location: Cornospital
(48.0620°N, 3.3837°W)
Time: 21:25:45
(UTC+00:00)

ATLAS CENTAUR R/B - Pass Details

Date: 17 June 2021
Orbit: 472 x 671 km, 64.6° (Epoch: 13 June)

Event Time Altitude Azimuth Distance (km) Brightness Sun altitude
Rises 21:38:10 0° 324° (NW) 2,764 7.3 -10.4°
Reaches altitude 10° 21:40:23 10° 329° (NNW) 1,897 5.7 -10.6°
Maximum altitude 21:44:36 54° 47° (NE) 735 2.0 -11.0°
Enters shadow 21:48:22 14° 123° (ESE) 1,744 3.3 -11.4°
